{"data":{"norad_id":55434,"epoch":"2026-09-20T14:22:08.944032Z","epoch_age_seconds":88033,"freshness":"FRESH","line1":"1 55434U 23014AV  26263.59871463 -.00000027  00000+0  55586-5 0  9996","line2":"2 55434  69.9997 333.0449 0003594 268.1733  91.9015 14.98329921200262","mean_motion":14.98329921,"eccentricity":0.0003594,"inclination_deg":69.9997,"raan_deg":333.0449,"arg_perigee_deg":268.1733,"mean_anomaly_deg":91.9015,"bstar":5.5586e-6,"rev_number":20026,"period_min":96.10700419297,"perigee_km":569.5582358326,"apogee_km":574.55403465822,"semimajor_km":6950.1931352454,"source":"CELESTRAK","updated_at":"2026-09-21T09:00:33.223150Z"}}